| time (UTC) | temp F | wind direction | speed MPH | gust MPH | rain 1hr in | rain 24hr in | rain mn in | humidity % | barometer mb |
| 20260901141558 | 72 | 338 | 0.0 | 0.0 | 0.00 | 0.86 | 0.14 | 99 | 1012.6 |
| 20260901140052 | 72 | 167 | 0.0 | 0.0 | 0.00 | 0.86 | 0.14 | 99 | 1012.7 |
| 20260901134547 | 71 | 158 | 0.0 | 0.0 | 0.00 | 1.04 | 0.14 | 99 | 1012.7 |
| 20260901133046 | 71 | 158 | 0.0 | 0.0 | 0.00 | 1.04 | 0.14 | 99 | 1012.7 |
| 20260901131542 | 70 | 158 | 0.0 | 0.0 | 0.00 | 1.04 | 0.14 | 99 | 1012.7 |
| 20260901130040 | 70 | 158 | 0.0 | 0.0 | 0.00 | 1.04 | 0.14 | 99 | 1012.9 |
| 20260901124550 | 69 | 158 | 0.0 | 0.0 | 0.00 | 1.08 | 0.14 | 99 | 1013.0 |
| 20260901123038 | 69 | 158 | 0.0 | 0.0 | 0.00 | 1.08 | 0.14 | 99 | 1013.0 |
| 20260901121546 | 69 | 158 | 0.0 | 0.0 | 0.00 | 1.08 | 0.14 | 99 | 1012.9 |
| 20260901120035 | 68 | 158 | 0.0 | 0.0 | 0.00 | 1.08 | 0.14 | 99 | 1012.9 |
| 20260901114535 | 68 | 158 | 0.0 | 0.0 | 0.01 | 1.08 | 0.14 | 99 | 1012.8 |
| 20260901113035 | 68 | 158 | 0.0 | 0.0 | 0.01 | 1.08 | 0.14 | 99 | 1012.8 |
| 20260901111532 | 68 | 158 | 0.0 | 0.0 | 0.01 | 1.08 | 0.14 | 99 | 1012.7 |
| 20260901110039 | 68 | 158 | 0.0 | 0.0 | 0.01 | 1.08 | 0.14 | 99 | 1012.5 |
| 20260901104530 | 68 | 158 | 0.0 | 0.0 | 0.00 | 1.07 | 0.13 | 99 | 1012.4 |
| 20260901103029 | 68 | 158 | 0.0 | 0.0 | 0.00 | 1.07 | 0.13 | 99 | 1012.2 |
| 20260901101529 | 68 | 158 | 0.0 | 0.0 | 0.03 | 1.07 | 0.13 | 99 | 1012.3 |
| 20260901100029 | 68 | 158 | 0.0 | 0.0 | 0.03 | 1.07 | 0.13 | 99 | 1012.4 |
| 20260901094628 | 68 | 158 | 0.0 | 0.0 | 0.04 | 1.07 | 0.13 | 99 | 1012.4 |
| 20260901093027 | 68 | 158 | 0.0 | 0.0 | 0.08 | 1.07 | 0.13 | 99 | 1012.4 |
| 20260901091537 | 68 | 158 | 0.0 | 0.0 | 0.05 | 1.04 | 0.10 | 99 | 1012.7 |
| 20260901090027 | 68 | 158 | 0.0 | 0.0 | 0.05 | 1.04 | 0.10 | 99 | 1012.7 |
| 20260901084526 | 68 | 160 | 0.0 | 0.0 | 0.04 | 1.01 | 0.07 | 99 | 1012.7 |
| 20260901083025 | 67 | 159 | 0.0 | 0.0 | 0.02 | 0.99 | 0.05 | 99 | 1012.4 |
| 20260901081525 | 67 | 159 | 0.0 | 0.0 | 0.02 | 0.99 | 0.05 | 99 | 1012.4 |
| 20260901080024 | 67 | 159 | 0.0 | 0.0 | 0.02 | 0.99 | 0.05 | 99 | 1012.5 |
| 20260901074521 | 67 | 84 | 0.0 | 0.0 | 0.00 | 0.97 | 0.03 | 99 | 1012.9 |
| 20260901073024 | 67 | 84 | 0.0 | 0.0 | 0.00 | 0.97 | 0.03 | 99 | 1013.0 |
| 20260901071518 | 67 | 84 | 0.0 | 0.0 | 0.00 | 0.97 | 0.03 | 99 | 1013.0 |
| 20260901070025 | 67 | 84 | 0.0 | 0.0 | 0.00 | 0.97 | 0.03 | 99 | 1013.4 |
| 20260901064515 | 67 | 84 | 0.0 | 0.0 | 0.00 | 0.97 | 0.03 | 99 | 1013.7 |
| 20260901063013 | 67 | 84 | 0.0 | 0.0 | 0.01 | 0.97 | 0.03 | 99 | 1014.0 |
| 20260901061512 | 67 | 84 | 0.0 | 0.0 | 0.02 | 0.97 | 0.03 | 99 | 1014.0 |
| 20260901060012 | 67 | 84 | 0.0 | 0.0 | 0.03 | 0.97 | 0.03 | 99 | 1014.1 |
| 20260901054509 | 67 | 84 | 0.0 | 0.0 | 0.03 | 0.97 | 0.03 | 99 | 1014.2 |
| 20260901053011 | 67 | 84 | 0.0 | 0.0 | 0.02 | 0.96 | 0.02 | 99 | 1014.4 |
| 20260901051506 | 67 | 84 | 0.0 | 0.0 | 0.01 | 0.95 | 0.01 | 99 | 1014.7 |
| 20260901050006 | 67 | 84 | 0.0 | 0.0 | 0.00 | 0.94 | 0.00 | 99 | 1014.7 |
| 20260901044506 | 67 | 84 | 0.0 | 0.0 | 0.00 | 0.94 | 0.00 | 99 | 1014.7 |
| 20260901043005 | 67 | 84 | 0.0 | 0.0 | 0.00 | 0.94 | 0.00 | 98 | 1014.6 |
| 20260901041502 | 67 | 84 | 0.0 | 0.0 | 0.00 | 0.94 | 0.00 | 98 | 1014.7 |
| 20260901040104 | 68 | 84 | 0.0 | 0.0 | 0.00 | 0.94 | 0.00 | 98 | 1014.6 |
| 20260901034605 | 68 | 84 | 0.0 | 0.0 | 0.00 | 0.94 | 0.94 | 98 | 1014.8 |
| 20260901033105 | 68 | 84 | 0.0 | 0.0 | 0.00 | 0.94 | 0.94 | 98 | 1015.1 |
| 20260901031554 | 68 | 84 | 0.0 | 0.0 | 0.00 | 0.94 | 0.94 | 98 | 1015.3 |
| 20260901030052 | 68 | 84 | 0.0 | 0.0 | 0.00 | 0.94 | 0.94 | 98 | 1015.3 |
| 20260901024555 | 68 | 84 | 0.0 | 0.0 | 0.00 | 0.94 | 0.94 | 98 | 1015.4 |
| 20260901023051 | 68 | 84 | 0.0 | 0.0 | 0.00 | 0.94 | 0.94 | 98 | 1015.6 |
| 20260901021552 | 68 | 84 | 0.0 | 0.0 | 0.00 | 0.94 | 0.94 | 98 | 1015.6 |
| 20260901020049 | 68 | 84 | 0.0 | 0.0 | 0.00 | 0.94 | 0.94 | 98 | 1015.6 |
| 20260901014549 | 68 | 84 | 0.0 | 0.0 | 0.00 | 0.94 | 0.94 | 98 | 1015.6 |
| 20260901013049 | 68 | 84 | 0.0 | 0.0 | 0.00 | 0.94 | 0.94 | 98 | 1015.8 |
| 20260901011555 | 68 | 84 | 0.0 | 0.0 | 0.01 | 0.94 | 0.94 | 98 | 1015.7 |
| 20260901010047 | 68 | 84 | 0.0 | 0.0 | 0.01 | 0.94 | 0.94 | 98 | 1015.3 |
| 20260901004546 | 68 | 84 | 0.0 | 0.0 | 0.01 | 0.94 | 0.94 | 98 | 1015.4 |
| 20260901003055 | 68 | 84 | 0.0 | 0.0 | 0.00 | 0.00 | 0.94 | 98 | 1015.3 |
| 20260901001545 | 68 | 84 | 0.0 | 0.0 | 0.00 | 0.93 | 0.93 | 98 | 1015.3 |
| 20260901000045 | 68 | 84 | 0.0 | 0.0 | 0.00 | 0.93 | 0.93 | 98 | 1015.5 |
| 20260831234543 | 68 | 84 | 0.0 | 0.0 | 0.00 | 0.93 | 0.93 | 98 | 1015.4 |
| 20260831233043 | 68 | 84 | 0.0 | 0.0 | 0.00 | 0.93 | 0.93 | 98 | 1015.4 |
| 20260831231544 | 68 | 84 | 0.0 | 0.0 | 0.00 | 0.93 | 0.93 | 98 | 1015.5 |
| 20260831230041 | 68 | 84 | 0.0 | 0.0 | 0.01 | 0.93 | 0.93 | 98 | 1015.5 |
| 20260831224540 | 68 | 84 | 0.0 | 0.0 | 0.01 | 0.93 | 0.93 | 98 | 1015.6 |
| 20260831223042 | 68 | 75 | 0.0 | 0.0 | 0.01 | 0.93 | 0.93 | 98 | 1015.7 |
| 20260831221542 | 68 | 75 | 0.0 | 0.0 | 0.01 | 0.93 | 0.93 | 98 | 1015.6 |
| 20260831220038 | 68 | 75 | 0.0 | 0.0 | 0.00 | 0.92 | 0.92 | 98 | 1015.6 |
| 20260831214542 | 68 | 75 | 0.0 | 0.0 | 0.00 | 0.92 | 0.92 | 98 | 1015.7 |
| 20260831213042 | 68 | 75 | 0.0 | 0.0 | 0.01 | 0.92 | 0.92 | 98 | 1015.7 |
| 20260831211535 | 68 | 75 | 0.0 | 0.0 | 0.04 | 0.92 | 0.92 | 98 | 1015.8 |
| 20260831210037 | 68 | 75 | 0.0 | 0.0 | 0.06 | 0.92 | 0.92 | 98 | 1015.8 |
| 20260831204536 | 68 | 75 | 0.0 | 0.0 | 0.07 | 0.92 | 0.92 | 98 | 1015.8 |
| 20260831203052 | 68 | 170 | 0.0 | 0.0 | 0.08 | 0.91 | 0.91 | 98 | 1015.9 |
| 20260831201531 | 68 | 170 | 0.0 | 0.0 | 0.07 | 0.88 | 0.88 | 98 | 1016.1 |
| 20260831200037 | 68 | 170 | 0.0 | 0.0 | 0.12 | 0.86 | 0.86 | 98 | 1016.2 |
| 20260831194528 | 68 | 170 | 0.0 | 0.0 | 0.15 | 0.85 | 0.85 | 98 | 1016.4 |
| 20260831193027 | 68 | 170 | 0.0 | 0.0 | 0.14 | 0.83 | 0.83 | 97 | 1016.6 |
| 20260831191524 | 68 | 178 | 0.0 | 0.0 | 0.22 | 0.80 | 0.80 | 97 | 1016.9 |
| 20260831190029 | 68 | 180 | 0.0 | 0.0 | 0.25 | 0.74 | 0.74 | 98 | 1016.9 |
| 20260831184527 | 68 | 165 | 0.0 | 0.0 | 0.22 | 0.71 | 0.70 | 97 | 1016.9 |
| 20260831183026 | 68 | 165 | 0.0 | 0.0 | 0.25 | 0.70 | 0.69 | 97 | 1016.8 |
| 20260831181525 | 68 | 165 | 0.0 | 0.0 | 0.13 | 0.57 | 0.56 | 97 | 1017.2 |
| 20260831180021 | 68 | 127 | 0.0 | 0.0 | 0.05 | 0.50 | 0.49 | 97 | 1017.1 |
| 20260831174520 | 68 | 162 | 0.0 | 0.0 | 0.08 | 0.50 | 0.48 | 97 | 1017.2 |
| 20260831173018 | 69 | 161 | 0.0 | 0.0 | 0.04 | 0.46 | 0.44 | 97 | 1017.3 |
| 20260831171516 | 69 | 161 | 0.0 | 0.0 | 0.05 | 0.46 | 0.44 | 97 | 1017.4 |
| 20260831170026 | 68 | 159 | 0.0 | 0.0 | 0.05 | 0.46 | 0.44 | 97 | 1017.6 |
| 20260831164512 | 68 | 158 | 0.0 | 0.0 | 0.02 | 0.43 | 0.40 | 97 | 1017.6 |
| 20260831163011 | 68 | 159 | 0.0 | 0.0 | 0.04 | 0.43 | 0.40 | 97 | 1017.8 |
| 20260831161512 | 68 | 158 | 0.0 | 0.0 | 0.07 | 0.42 | 0.39 | 97 | 1018.0 |
| 20260831160013 | 68 | 165 | 0.0 | 0.0 | 0.08 | 0.42 | 0.39 | 97 | 1018.1 |
| 20260831154510 | 68 | 165 | 0.0 | 0.0 | 0.08 | 0.41 | 0.38 | 98 | 1018.2 |
| 20260831153133 | 67 | 165 | 0.0 | 0.0 | 0.07 | 0.39 | 0.36 | 98 | 1018.2 |
| 20260831151506 | 67 | 166 | 0.0 | 0.0 | 0.07 | 0.35 | 0.32 | 98 | 1018.4 |
| 20260831150004 | 67 | 166 | 0.0 | 0.0 | 0.09 | 0.34 | 0.31 | 97 | 1018.2 |
| 20260831144503 | 67 | 166 | 0.0 | 0.0 | 0.10 | 0.33 | 0.30 | 97 | 1018.1 |
| 20260831143001 | 66 | 165 | 0.0 | 0.0 | 0.18 | 0.32 | 0.28 | 98 | 1018.2 |